Change the Weather History Date:

Thursday, March 21, 2013

  Actual Average Record
Temperature  
Mean Temperature 38 °F 50 °F  
Max Temperature 47 °F 61 °F 86 °F (1968)
Min Temperature 29 °F 40 °F 19 °F (1965)
Degree Days  
Heating Degree Days 27 15  
Month to date heating degree days 440 378  
Since 1 July heating degree days 3235 3379  
Cooling Degree Days 0 0  
Month to date cooling degree days 0 0  
Year to date cooling degree days 2 0  
Moisture  
Dew Point 14 °F    
Average Humidity 40    
Maximum Humidity 52    
Minimum Humidity 27    
Precipitation  
Precipitation 0.00 in 0.14 in 1.38 in (1980)
Month to date precipitation 1.54 2.53  
Year to date precipitation 11.35 8.96  
Snow  
Snow 0.00 in - - ()
Month to date snowfall T  
Since 1 July snowfall 1.7  
Snow Depth 0.00 in    
Sea Level Pressure  
Sea Level Pressure 29.83 in    
Wind  
Wind Speed 12 mph (NW)    
Max Wind Speed 23 mph    
Max Gust Speed 29 mph    
Visibility 10 miles    
Events      
T = Trace of Precipitation, MM = Missing Value Source: NWS Daily Summary

Daily Weather History Graph

Daily Weather History Graph

Search for Another Location

Airport or City:

Trip Planner

Search our weather history database for the weather conditions in past years. The results will help you decide how hot, cold, wet, or windy it might be!

Date:

Astronomy

Mar. 21, 2013 Rise Set
Actual Time 7:19 AM EDT 7:30 PM EDT
Civil Twilight 6:53 AM EDT 7:56 PM EDT
Nautical Twilight 6:23 AM EDT 8:26 PM EDT
Astronomical Twilight 5:52 AM EDT 8:56 PM EDT
Moon 2:06 PM EDT (3/21) 3:31 AM EDT (3/21)
Length of Visible Light 13h 02m
Length of Day
12h 11m
Waxing Gibbous, 68% of the Moon is Illuminated
Mar 21
Waxing Gibbous
Mar 27
Full
Apr 3
Last Quarter
Apr 10
New
Apr 18
First Quarter

Hourly Weather History & Observations

Time (EDT) Temp. Windchill Dew Point Humidity Pressure Visibility Wind Dir Wind Speed Gust Speed Precip Events Conditions
12:53 AM 46.0 °F 44.8 °F 21.0 °F 37% 29.74 in 10.0 mi WSW 3.5 mph - N/A   Mostly Cloudy
1:53 AM 45.0 °F 40.6 °F 19.9 °F 37% 29.75 in 10.0 mi NW 8.1 mph 19.6 mph N/A   Overcast
2:53 AM 42.1 °F 36.1 °F 25.0 °F 51% 29.77 in 10.0 mi NW 10.4 mph 19.6 mph N/A   Overcast
3:53 AM 39.0 °F 34.0 °F 21.0 °F 49% 29.76 in 10.0 mi NW 6.9 mph - N/A   Clear
4:53 AM 37.9 °F 30.9 °F 21.0 °F 51% 29.76 in 10.0 mi NW 10.4 mph - N/A   Overcast
5:53 AM 37.0 °F 29.8 °F 19.9 °F 50% 29.78 in 10.0 mi NW 10.4 mph - N/A   Mostly Cloudy
6:53 AM 35.1 °F 26.9 °F 17.1 °F 48% 29.79 in 10.0 mi NNW 11.5 mph - N/A   Scattered Clouds
7:53 AM 34.0 °F 26.0 °F 15.1 °F 46% 29.80 in 10.0 mi NNW 10.4 mph 16.1 mph N/A   Partly Cloudy
8:53 AM 36.0 °F 28.0 °F 15.1 °F 43% 29.81 in 10.0 mi NW 11.5 mph 18.4 mph N/A   Clear
9:53 AM 37.9 °F 30.5 °F 14.0 °F 38% 29.81 in 10.0 mi NNW 11.5 mph - N/A   Clear
10:53 AM 39.9 °F 32.9 °F 12.9 °F 33% 29.81 in 10.0 mi NNW 11.5 mph - N/A   Clear
11:53 AM 39.9 °F 31.1 °F 12.9 °F 33% 29.81 in 10.0 mi NNW 17.3 mph 23.0 mph N/A   Clear
12:53 PM 41.0 °F 33.1 °F 12.0 °F 31% 29.81 in 10.0 mi NW 15.0 mph 20.7 mph N/A   Scattered Clouds
1:53 PM 41.0 °F 32.5 °F 10.0 °F 28% 29.81 in 10.0 mi NW 17.3 mph 27.6 mph N/A   Scattered Clouds
2:53 PM 39.9 °F 30.2 °F 10.9 °F 31% 29.81 in 10.0 mi West 20.7 mph 26.5 mph N/A   Overcast
3:53 PM 39.9 °F 31.4 °F 9.0 °F 28% 29.82 in 10.0 mi NW 16.1 mph 27.6 mph N/A   Mostly Cloudy
4:53 PM 39.9 °F 30.8 °F 8.1 °F 27% 29.84 in 10.0 mi NNW 18.4 mph 26.5 mph N/A   Mostly Cloudy
5:53 PM 39.9 °F 32.5 °F 8.1 °F 27% 29.86 in 10.0 mi NW 12.7 mph 23.0 mph N/A   Overcast
6:53 PM 37.0 °F 28.9 °F 7.0 °F 29% 29.89 in 10.0 mi WNW 12.7 mph 20.7 mph N/A   Mostly Cloudy
7:53 PM 34.0 °F 26.6 °F 8.1 °F 34% 29.91 in 10.0 mi WNW 9.2 mph - N/A   Clear
8:53 PM 33.1 °F 24.9 °F 9.0 °F 37% 29.95 in 10.0 mi NW 10.4 mph 19.6 mph N/A   Clear
9:53 PM 30.9 °F 22.2 °F 10.0 °F 42% 29.96 in 10.0 mi WNW 10.4 mph - N/A   Clear
10:53 PM 30.0 °F 23.2 °F 10.9 °F 45% 29.97 in 10.0 mi WNW 6.9 mph - N/A   Clear
11:53 PM 30.0 °F 24.1 °F 10.9 °F 45% 29.99 in 10.0 mi WNW 5.8 mph - N/A   Clear